Location: ActonStarParty
(42.4766°N, 71.4538°W)
Time: 01:29:43
(UTC-04:00)

Cosmos 1300 - Visible Passes

Search period start: 24 April 2017 00:00
Search period end: 04 May 2017 00:00
Orbit: 514 x 518 km, 82.5° (Epoch: 22 April)

Date Brightness Start Highest point End Pass type
(mag) Time Alt. Az. Time Alt. Az. Time Alt. Az.
24 Apr 6.5 05:17:23 10° NE 05:18:59 12° ENE 05:20:34 10° E visible
25 Apr 6.8 05:03:43 10° ENE 05:03:55 10° ENE 05:04:09 10° ENE visible
25 Apr 6.4 20:29:30 10° W 20:31:02 12° WNW 20:32:35 10° NW visible
26 Apr 6.2 20:13:51 10° WSW 20:16:00 14° WNW 20:18:09 10° NW visible
01 May 4.4 05:06:33 10° N 05:10:11 39° ENE 05:13:47 10° SSE visible
02 May 4.8 04:51:40 10° NNE 04:55:10 32° ENE 04:58:38 10° SE visible
03 May 5.1 04:36:50 10° NNE 04:40:09 27° ENE 04:43:25 10° SE visible
